Location: Township of South Roscoe
(37.9570°N, 100.1180°W)
Time: 07:09:20
(UTC+00:00)

Hubble Space Telescope - Visible Passes

Search period start: 28 January 2022 00:00
Search period end: 07 February 2022 00:00
Orbit: 534 x 538 km, 28.5° (Epoch: 27 January)

Date Brightness Start Highest point End Pass type
(mag) Time Alt. Az. Time Alt. Az. Time Alt. Az.
31 Jan 3.5 02:31:26 10° SW 02:31:54 12° SSW 02:31:54 12° SSW visible
01 Feb 3.4 00:42:22 10° SSE 00:42:29 10° SSE 00:42:36 10° SSE visible
01 Feb 3.1 02:19:55 10° SW 02:21:21 16° SSW 02:21:21 16° SSW visible
02 Feb 3.2 00:29:29 10° S 00:31:05 12° SSE 00:32:40 10° SE visible
02 Feb 2.8 02:08:27 10° SW 02:10:47 20° S 02:10:47 20° S visible
03 Feb 2.5 01:57:02 10° SW 02:00:11 21° S 02:00:12 21° S visible
04 Feb 2.5 01:45:39 10° SW 01:48:49 22° S 01:49:39 20° SSE visible
05 Feb 2.6 01:34:17 10° SW 01:37:27 21° S 01:39:06 17° SSE visible
06 Feb 2.7 01:22:58 10° SW 01:26:05 21° S 01:28:35 13° SE visible
